| time (UTC) | temp C | wind direction | speed KPH | gust KPH | rain 1hr cm | rain 24hr cm | rain mn cm | humidity % | barometer mb |
| 20260508150314 | 12 | 337 | 0.0 | 0.0 | 0.00 | 0.00 | 0.00 | 63 | 1024.6 |
| 20260508145315 | 12 | 337 | 0.0 | 0.0 | 0.00 | 0.00 | 0.00 | 66 | 1024.6 |
| 20260508144315 | 11 | 337 | 0.0 | 0.0 | 0.00 | 0.00 | 0.00 | 68 | 1024.6 |
| 20260508143414 | 11 | 337 | 0.0 | 0.0 | 0.00 | 0.00 | 0.00 | 68 | 1024.5 |
| 20260508142415 | 11 | 337 | 0.0 | 0.0 | 0.00 | 0.00 | 0.00 | 70 | 1024.4 |
| 20260508141513 | 10 | 337 | 0.0 | 0.0 | 0.00 | 0.00 | 0.00 | 72 | 1024.3 |
| 20260508135613 | 10 | 337 | 0.0 | 0.0 | 0.00 | 0.00 | 0.00 | 73 | 1024.3 |
| 20260508134615 | 10 | 337 | 0.0 | 0.0 | 0.00 | 0.00 | 0.00 | 72 | 1024.2 |
| 20260508133614 | 10 | 337 | 0.0 | 0.0 | 0.00 | 0.00 | 0.00 | 73 | 1024.1 |
| 20260508132614 | 9 | 270 | 0.0 | 1.6 | 0.00 | 0.00 | 0.00 | 76 | 1024.0 |
| 20260508131613 | 9 | 157 | 0.0 | 0.0 | 0.00 | 0.00 | 0.00 | 76 | 1024.0 |
| 20260508130614 | 9 | 157 | 0.0 | 0.0 | 0.00 | 0.00 | 0.00 | 77 | 1024.1 |
| 20260508124615 | 9 | 157 | 0.0 | 0.0 | 0.00 | 0.00 | 0.00 | 77 | 1024.0 |
| 20260508123713 | 9 | 157 | 0.0 | 0.0 | 0.00 | 0.00 | 0.00 | 76 | 1024.1 |
| 20260508122715 | 9 | 157 | 0.0 | 0.0 | 0.00 | 0.00 | 0.00 | 76 | 1024.0 |
| 20260508121713 | 9 | 157 | 0.0 | 0.0 | 0.00 | 0.00 | 0.00 | 77 | 1024.0 |
| 20260508120714 | 9 | 157 | 0.0 | 0.0 | 0.00 | 0.00 | 0.00 | 77 | 1024.0 |
| 20260508115716 | 9 | 157 | 0.0 | 0.0 | 0.00 | 0.00 | 0.00 | 77 | 1024.0 |
| 20260508113713 | 8 | 157 | 0.0 | 0.0 | 0.00 | 0.00 | 0.00 | 77 | 1024.0 |
| 20260508111714 | 8 | 157 | 0.0 | 0.0 | 0.00 | 0.00 | 0.00 | 80 | 1024.1 |
| 20260508110713 | 8 | 157 | 0.0 | 0.0 | 0.00 | 0.00 | 0.00 | 79 | 1024.0 |
| 20260508103739 | 10 | 157 | 0.0 | 0.0 | 0.00 | 0.00 | 0.00 | 78 | 1024.2 |
| 20260508103513 | 9 | 157 | 0.0 | 0.0 | 0.00 | 0.00 | 0.00 | 78 | 1024.1 |
| 20260508102516 | 9 | 157 | 0.0 | 0.0 | 0.00 | 0.00 | 0.00 | 78 | 1024.0 |
| 20260508101515 | 9 | 157 | 0.0 | 0.0 | 0.00 | 0.00 | 0.00 | 79 | 1024.2 |
| 20260508100613 | 9 | 157 | 0.0 | 0.0 | 0.00 | 0.00 | 0.00 | 77 | 1024.1 |
| 20260508095613 | 9 | 157 | 0.0 | 0.0 | 0.00 | 0.00 | 0.00 | 76 | 1024.1 |
| 20260508093713 | 10 | 157 | 0.0 | 0.0 | 0.00 | 0.00 | 0.00 | 74 | 1024.1 |
| 20260508092713 | 10 | 157 | 0.0 | 0.0 | 0.00 | 0.00 | 0.00 | 71 | 1024.1 |
| 20260508090715 | 10 | 157 | 0.0 | 0.0 | 0.00 | 0.00 | 0.00 | 69 | 1024.1 |
| 20260508085813 | 10 | 157 | 0.0 | 0.0 | 0.00 | 0.00 | 0.00 | 68 | 1024.1 |
| 20260508084817 | 10 | 157 | 0.0 | 0.0 | 0.00 | 0.00 | 0.00 | 67 | 1024.1 |
| 20260508083814 | 10 | 157 | 0.0 | 0.0 | 0.00 | 0.00 | 0.00 | 66 | 1024.1 |
| 20260508082814 | 10 | 157 | 0.0 | 0.0 | 0.00 | 0.00 | 0.00 | 67 | 1024.2 |
| 20260508081816 | 9 | 157 | 0.0 | 0.0 | 0.00 | 0.00 | 0.00 | 71 | 1024.3 |
| 20260508080813 | 10 | 157 | 0.0 | 0.0 | 0.00 | 0.00 | 0.00 | 72 | 1024.4 |
| 20260508075815 | 10 | 157 | 0.0 | 0.0 | 0.00 | 0.00 | 0.00 | 71 | 1024.5 |
| 20260508074814 | 10 | 157 | 0.0 | 0.0 | 0.00 | 0.00 | 0.00 | 71 | 1024.5 |
| 20260508072815 | 10 | 157 | 0.0 | 0.0 | 0.00 | 0.00 | 0.00 | 71 | 1024.7 |
| 20260508071816 | 9 | 157 | 0.0 | 0.0 | 0.00 | 0.00 | 0.00 | 74 | 1024.7 |
| 20260508070814 | 10 | 157 | 0.0 | 0.0 | 0.00 | 0.00 | 0.00 | 74 | 1024.7 |
| 20260508065827 | 10 | 157 | 0.0 | 0.0 | 0.00 | 0.00 | 0.00 | 76 | 1024.8 |
| 20260508064845 | 10 | 157 | 0.0 | 0.0 | 0.00 | 0.00 | 0.00 | 77 | 1024.7 |
| 20260508063826 | 10 | 157 | 0.0 | 0.0 | 0.00 | 0.00 | 0.00 | 78 | 1024.8 |
| 20260508062842 | 10 | 157 | 0.0 | 0.0 | 0.00 | 0.00 | 0.00 | 78 | 1024.9 |
| 20260508061828 | 10 | 157 | 0.0 | 0.0 | 0.00 | 0.00 | 0.00 | 79 | 1024.8 |
| 20260508060729 | 10 | 157 | 0.0 | 0.0 | 0.00 | 0.00 | 0.00 | 79 | 1024.9 |
| 20260508055727 | 10 | 157 | 0.0 | 0.0 | 0.00 | 0.00 | 0.00 | 78 | 1025.0 |
| 20260508054729 | 10 | 157 | 0.0 | 0.0 | 0.00 | 0.00 | 0.00 | 77 | 1025.0 |
| 20260508052728 | 11 | 157 | 0.0 | 0.0 | 0.00 | 0.00 | 0.00 | 78 | 1025.0 |
| 20260508051728 | 11 | 157 | 0.0 | 0.0 | 0.00 | 0.00 | 0.00 | 78 | 1025.0 |
| 20260508050827 | 11 | 157 | 0.0 | 0.0 | 0.00 | 0.00 | 0.00 | 77 | 1024.9 |
| 20260508045927 | 11 | 157 | 0.0 | 0.0 | 0.00 | 0.00 | 0.00 | 77 | 1025.1 |
| 20260508044928 | 11 | 157 | 0.0 | 0.0 | 0.00 | 0.00 | 0.00 | 76 | 1025.1 |
| 20260508044027 | 11 | 157 | 0.0 | 0.0 | 0.00 | 0.00 | 0.00 | 76 | 1024.9 |
| 20260508043126 | 12 | 157 | 0.0 | 0.0 | 0.00 | 0.00 | 0.00 | 76 | 1024.9 |
| 20260508042143 | 12 | 157 | 0.0 | 0.0 | 0.00 | 0.00 | 0.00 | 75 | 1024.8 |
| 20260508041228 | 12 | 157 | 0.0 | 0.0 | 0.00 | 0.00 | 0.00 | 74 | 1024.7 |
| 20260508040228 | 12 | 157 | 0.0 | 0.0 | 0.00 | 0.00 | 0.00 | 73 | 1024.7 |
| 20260508035228 | 12 | 157 | 0.0 | 0.0 | 0.00 | 0.00 | 0.00 | 73 | 1024.7 |
| 20260508034228 | 13 | 157 | 0.0 | 0.0 | 0.00 | 0.00 | 0.00 | 72 | 1024.6 |
| 20260508033227 | 13 | 157 | 0.0 | 0.0 | 0.00 | 0.00 | 0.00 | 71 | 1024.6 |
| 20260508031229 | 14 | 157 | 0.0 | 0.0 | 0.00 | 0.00 | 0.00 | 68 | 1024.4 |
| 20260508030227 | 14 | 157 | 0.0 | 0.0 | 0.00 | 0.00 | 0.00 | 66 | 1024.5 |
| 20260508025228 | 15 | 157 | 0.0 | 0.0 | 0.00 | 0.00 | 0.00 | 63 | 1024.3 |
| 20260508024226 | 15 | 157 | 0.0 | 0.0 | 0.00 | 0.00 | 0.00 | 63 | 1024.3 |
| 20260508023227 | 15 | 157 | 0.0 | 0.0 | 0.00 | 0.00 | 0.00 | 60 | 1024.2 |
| 20260508022326 | 16 | 157 | 0.0 | 0.0 | 0.00 | 0.00 | 0.00 | 59 | 1024.2 |
| 20260508021327 | 16 | 157 | 0.0 | 0.0 | 0.00 | 0.00 | 0.00 | 58 | 1024.2 |
| 20260508020329 | 16 | 157 | 0.0 | 0.0 | 0.00 | 0.00 | 0.00 | 58 | 1024.2 |
| 20260508015327 | 17 | 157 | 0.0 | 0.0 | 0.00 | 0.00 | 0.00 | 58 | 1024.3 |
| 20260508014328 | 17 | 157 | 0.0 | 0.0 | 0.00 | 0.00 | 0.00 | 59 | 1024.2 |
| 20260508013328 | 17 | 157 | 0.0 | 0.0 | 0.00 | 0.00 | 0.00 | 59 | 1024.1 |
| 20260508012328 | 17 | 157 | 0.0 | 0.0 | 0.00 | 0.00 | 0.00 | 59 | 1024.0 |
| 20260508011328 | 17 | 157 | 0.0 | 1.6 | 0.00 | 0.00 | 0.00 | 59 | 1024.0 |
| 20260508005329 | 18 | 150 | 0.0 | 1.6 | 0.00 | 0.00 | 0.00 | 57 | 1024.3 |
| 20260508004329 | 18 | 164 | 3.2 | 4.8 | 0.00 | 0.00 | 0.00 | 55 | 1024.2 |
| 20260508003328 | 18 | 157 | 0.0 | 0.0 | 0.00 | 0.00 | 0.00 | 54 | 1024.1 |
| 20260508002327 | 18 | 135 | 0.0 | 1.6 | 0.00 | 0.00 | 0.00 | 53 | 1024.1 |
| 20260508001329 | 18 | 225 | 0.0 | 3.2 | 0.00 | 0.00 | 0.00 | 51 | 1024.1 |
| 20260508000327 | 19 | 185 | 0.0 | 1.6 | 0.00 | 0.00 | 0.00 | 49 | 1024.1 |
| 20260507235327 | 19 | 180 | 4.8 | 8.0 | 0.00 | 0.00 | 0.00 | 50 | 1024.1 |
| 20260507234328 | 19 | 210 | 0.0 | 0.0 | 0.00 | 0.00 | 0.00 | 48 | 1024.0 |
| 20260507233327 | 20 | 157 | 0.0 | 1.6 | 0.00 | 0.00 | 0.00 | 45 | 1024.1 |
| 20260507231326 | 20 | 187 | 0.0 | 1.6 | 0.00 | 0.00 | 0.00 | 46 | 1024.2 |
| 20260507225343 | 20 | 180 | 0.0 | 0.0 | 0.00 | 0.00 | 0.00 | 45 | 1024.5 |
| 20260507223328 | 20 | 284 | 0.0 | 3.2 | 0.00 | 0.00 | 0.00 | 44 | 1024.5 |
| 20260507222344 | 20 | 169 | 1.6 | 3.2 | 0.00 | 0.00 | 0.00 | 45 | 1024.6 |
| 20260507221428 | 20 | 126 | 0.0 | 3.2 | 0.00 | 0.00 | 0.00 | 45 | 1024.7 |
| 20260507220429 | 21 | 135 | 0.0 | 0.0 | 0.00 | 0.00 | 0.00 | 45 | 1024.7 |
| 20260507215427 | 21 | 130 | 0.0 | 1.6 | 0.00 | 0.00 | 0.00 | 46 | 1024.7 |
| 20260507214427 | 21 | 187 | 4.8 | 8.0 | 0.00 | 0.00 | 0.00 | 45 | 1024.8 |
| 20260507213526 | 21 | 80 | 1.6 | 4.8 | 0.00 | 0.00 | 0.00 | 45 | 1024.9 |
| 20260507212529 | 21 | 225 | 0.0 | 0.0 | 0.00 | 0.00 | 0.00 | 45 | 1024.9 |
| 20260507211545 | 21 | 126 | 0.0 | 1.6 | 0.00 | 0.00 | 0.00 | 44 | 1024.9 |
| 20260507210543 | 21 | 185 | 0.0 | 3.2 | 0.00 | 0.00 | 0.00 | 43 | 1024.9 |
| 20260507204628 | 22 | 88 | 0.0 | 1.6 | 0.00 | 0.00 | 0.00 | 43 | 1024.8 |
| 20260507203627 | 23 | 180 | 1.6 | 4.8 | 0.00 | 0.00 | 0.00 | 42 | 1024.9 |
| 20260507202627 | 23 | 292 | 0.0 | 1.6 | 0.00 | 0.00 | 0.00 | 41 | 1025.0 |
| 20260507201627 | 23 | 142 | 0.0 | 3.2 | 0.00 | 0.00 | 0.00 | 40 | 1024.9 |
| 20260507200626 | 23 | 174 | 6.4 | 8.0 | 0.00 | 0.00 | 0.00 | 38 | 1024.9 |
| 20260507195627 | 23 | 135 | 1.6 | 3.2 | 0.00 | 0.00 | 0.00 | 39 | 1024.9 |
| 20260507194727 | 23 | 39 | 0.0 | 4.8 | 0.00 | 0.00 | 0.00 | 39 | 1024.9 |
| 20260507193728 | 23 | 221 | 1.6 | 3.2 | 0.00 | 0.00 | 0.00 | 39 | 1024.9 |
| 20260507192727 | 24 | 167 | 0.0 | 1.6 | 0.00 | 0.00 | 0.00 | 37 | 1025.0 |
| 20260507191727 | 24 | 135 | 0.0 | 1.6 | 0.00 | 0.00 | 0.00 | 34 | 1025.1 |
| 20260507190827 | 23 | 315 | 0.0 | 0.0 | 0.00 | 0.00 | 0.00 | 35 | 1025.1 |
| 20260507184828 | 23 | 202 | 0.0 | 1.6 | 0.00 | 0.00 | 0.00 | 33 | 1025.2 |
| 20260507183828 | 23 | 93 | 0.0 | 0.0 | 0.00 | 0.00 | 0.00 | 34 | 1025.3 |
| 20260507182826 | 22 | 315 | 0.0 | 1.6 | 0.00 | 0.00 | 0.00 | 36 | 1025.3 |
| 20260507181826 | 22 | 200 | 0.0 | 1.6 | 0.00 | 0.00 | 0.00 | 38 | 1025.3 |
| 20260507180925 | 22 | 12 | 1.6 | 9.7 | 0.00 | 0.00 | 0.00 | 40 | 1025.3 |
| 20260507175927 | 22 | 157 | 0.0 | 0.0 | 0.00 | 0.00 | 0.00 | 39 | 1025.3 |
| 20260507174928 | 22 | 163 | 1.6 | 3.2 | 0.00 | 0.00 | 0.00 | 39 | 1025.3 |
| 20260507172927 | 21 | 157 | 0.0 | 1.6 | 0.00 | 0.00 | 0.00 | 41 | 1025.2 |
| 20260507171927 | 20 | 202 | 0.0 | 0.0 | 0.00 | 0.00 | 0.00 | 45 | 1025.3 |
| 20260507170942 | 21 | 180 | 0.0 | 4.8 | 0.00 | 0.00 | 0.00 | 47 | 1025.2 |
| 20260507165927 | 20 | 157 | 3.2 | 3.2 | 0.00 | 0.00 | 0.00 | 49 | 1025.2 |
| 20260507164927 | 20 | 157 | 0.0 | 1.6 | 0.00 | 0.00 | 0.00 | 50 | 1025.3 |
| 20260507163927 | 19 | 135 | 1.6 | 1.6 | 0.00 | 0.00 | 0.00 | 52 | 1025.3 |
| 20260507162928 | 18 | 135 | 1.6 | 3.2 | 0.00 | 0.00 | 0.00 | 54 | 1025.3 |
| 20260507161927 | 17 | 135 | 0.0 | 0.0 | 0.00 | 0.00 | 0.00 | 58 | 1025.3 |
| 20260507160926 | 16 | 157 | 0.0 | 0.0 | 0.00 | 0.00 | 0.00 | 59 | 1025.3 |
| 20260507155026 | 14 | 135 | 0.0 | 1.6 | 0.00 | 0.00 | 0.00 | 64 | 1025.2 |
| 20260507154028 | 13 | 45 | 0.0 | 0.0 | 0.00 | 0.00 | 0.00 | 64 | 1025.3 |
| 20260507153028 | 12 | 45 | 0.0 | 0.0 | 0.00 | 0.00 | 0.00 | 68 | 1025.0 |